Lexington, KY

10:54 AM EDT on October 21, 2017 (GMT -0400)
Blue Grass

Weather History for KLEX - January, 2014

Change the Weather History Date:

Thursday, January 30, 2014

  Actual Average Record
Temperature  
Mean Temperature 24 °F 34 °F  
Max Temperature 38 °F 42 °F 69 °F (1916)
Min Temperature 10 °F 25 °F -10 °F (1966)
Degree Days  
Heating Degree Days 41 31  
Month to date heating degree days 1147 959  
Since 1 July heating degree days 2905 2747  
Cooling Degree Days 0 0  
Month to date cooling degree days 0 0  
Year to date cooling degree days 0 0  
Moisture  
Dew Point 3 °F    
Average Humidity 41    
Maximum Humidity 63    
Minimum Humidity 19    
Precipitation  
Precipitation 0.00 in 0.11 in 1.59 in (1947)
Month to date precipitation 2.31 3.08  
Year to date precipitation 2.31 3.08  
Snow  
Snow 0.00 in 0.10 in 5.70 in (1980)
Month to date snowfall 8.6 3.7  
Since 1 July snowfall 10.6 6.5  
Snow Depth T in    
Sea Level Pressure  
Sea Level Pressure 30.19 in    
Wind  
Wind Speed 11 mph (South)    
Max Wind Speed 22 mph    
Max Gust Speed 27 mph    
Visibility 10 miles    
Events      
T = Trace of Precipitation, MM = Missing Value Source: NWS Daily Summary

Daily Weather History Graph

Daily Weather History Graph

Search for Another Location

Airport or City:

Trip Planner

Search our weather history database for the weather conditions in past years. The results will help you decide how hot, cold, wet, or windy it might be!

Date:

Astronomy

Jan. 30, 2014 Rise Set
Actual Time 7:44 AM EST 5:59 PM EST
Civil Twilight 7:16 AM EST 6:27 PM EST
Nautical Twilight 6:45 AM EST 6:58 PM EST
Astronomical Twilight 6:14 AM EST 7:29 PM EST
Moon 7:10 AM EST (1/30) 6:09 PM EST (1/30)
Length of Visible Light 11h 10m
Length of Day
10h 14m
Waning Crescent, 0% of the Moon is Illuminated
Jan 30
Waning Crescent
Jan 30
New
Feb 6
First Quarter
Feb 14
Full
Feb 22
Last Quarter

Hourly Weather History & Observations

Time (EST) Temp. Windchill Dew Point Humidity Pressure Visibility Wind Dir Wind Speed Gust Speed Precip Events Conditions
12:54 AM 12.9 °F 2.6 °F -0.0 °F 56% 30.34 in 10.0 mi SSE 6.9 mph - N/A   Clear
1:54 AM 12.0 °F 0.5 °F -0.0 °F 59% 30.33 in 10.0 mi South 8.1 mph - N/A   Clear
2:54 AM 12.0 °F 1.5 °F -0.0 °F 59% 30.33 in 10.0 mi SSE 6.9 mph - N/A   Clear
3:54 AM 12.0 °F 0.5 °F -0.0 °F 59% 30.33 in 10.0 mi South 8.1 mph - N/A   Clear
4:54 AM 12.9 °F -0.2 °F 1.0 °F 59% 30.31 in 10.0 mi South 10.4 mph - N/A   Clear
5:54 AM 10.9 °F 0.2 °F -0.0 °F 61% 30.30 in 10.0 mi SSE 6.9 mph - N/A   Clear
6:54 AM 10.9 °F -1.8 °F -0.0 °F 61% 30.30 in 10.0 mi SSE 9.2 mph - N/A   Clear
7:54 AM 10.9 °F 0.2 °F -0.9 °F 59% 30.30 in 10.0 mi SSE 6.9 mph - N/A   Clear
8:54 AM 15.1 °F 5.2 °F 1.9 °F 56% 30.28 in 10.0 mi SSE 6.9 mph - N/A   Clear
9:54 AM 19.9 °F 8.6 °F 3.9 °F 50% 30.29 in 10.0 mi South 10.4 mph - N/A   Clear
10:54 AM 25.0 °F 11.7 °F 5.0 °F 43% 30.30 in 10.0 mi SSW 17.3 mph - N/A   Clear
11:54 AM 28.9 °F 18.6 °F 5.0 °F 36% 30.25 in 10.0 mi South 12.7 mph - N/A   Clear
12:54 PM 30.9 °F 20.2 °F 3.9 °F 32% 30.17 in 10.0 mi South 15.0 mph - N/A   Clear
1:54 PM 33.1 °F 22.6 °F 1.9 °F 27% 30.12 in 10.0 mi South 16.1 mph 24.2 mph N/A   Clear
2:54 PM 37.0 °F 28.9 °F 1.0 °F 22% 30.09 in 10.0 mi SSW 12.7 mph - N/A   Clear
3:54 PM 37.9 °F 28.9 °F -2.0 °F 18% 30.07 in 10.0 mi SSW 16.1 mph - N/A   Clear
4:54 PM 37.0 °F 29.3 °F 1.0 °F 22% 30.05 in 10.0 mi South 11.5 mph - N/A   Clear
5:54 PM 36.0 °F 28.0 °F 6.1 °F 29% 30.01 in 10.0 mi South 11.5 mph - N/A   Clear
6:54 PM 35.1 °F 27.4 °F 8.1 °F 33% 30.01 in 10.0 mi South 10.4 mph - N/A   Clear
7:54 PM 34.0 °F 24.2 °F 8.1 °F 34% 30.02 in 10.0 mi South 15.0 mph - N/A   Clear
8:54 PM 34.0 °F 24.6 °F 8.1 °F 34% 30.02 in 10.0 mi South 13.8 mph - N/A   Clear
9:54 PM 34.0 °F 24.6 °F 7.0 °F 32% 30.04 in 10.0 mi South 13.8 mph - N/A   Clear
10:54 PM 32.0 °F 24.2 °F 8.1 °F 37% 30.06 in 10.0 mi South 9.2 mph - N/A   Clear
11:54 PM 33.1 °F 26.1 °F 8.1 °F 35% 30.07 in 10.0 mi SSW 8.1 mph - N/A   Clear